Time,TemperatureF,DewpointF,PressureIn,WindDirection,WindDirectionDegrees,WindSpeedMPH,WindSpeedGustMPH,Humidity,HourlyPrecipIn,Conditions,Clouds,dailyrainin,SoftwareType,DateUTC
2013-03-15 00:06:00,53.6,47.0,30.09,SSE,154,2.0,2.0,79,0.00,,,0.00,weatherlink.com 1.10,2013-03-15 07:06:00,
2013-03-15 00:21:00,52.8,47.0,30.08,South,184,1.0,5.0,81,0.00,,,0.00,weatherlink.com 1.10,2013-03-15 07:21:00,
2013-03-15 00:36:00,52.9,47.0,30.09,SE,142,0.0,0.0,81,0.00,,,0.00,weatherlink.com 1.10,2013-03-15 07:36:00,
2013-03-15 00:51:00,51.7,46.0,30.08,SW,225,1.0,2.0,82,0.00,,,0.00,weatherlink.com 1.10,2013-03-15 07:51:00,
2013-03-15 01:51:00,50.6,46.0,30.09,WSW,249,2.0,4.0,84,0.00,,,0.00,weatherlink.com 1.10,2013-03-15 08:51:00,
2013-03-15 02:06:00,50.2,46.0,30.09,West,261,1.0,4.0,84,0.00,,,0.00,weatherlink.com 1.10,2013-03-15 09:06:00,
2013-03-15 02:21:00,49.3,45.0,30.09,WSW,253,0.0,4.0,85,0.00,,,0.00,weatherlink.com 1.10,2013-03-15 09:21:00,
2013-03-15 02:36:00,48.8,45.0,30.10,WSW,253,1.0,1.0,86,0.00,,,0.00,weatherlink.com 1.10,2013-03-15 09:36:00,
2013-03-15 02:51:00,48.7,45.0,30.09,WSW,247,2.0,2.0,87,0.00,,,0.00,weatherlink.com 1.10,2013-03-15 09:51:00,
2013-03-15 03:06:00,48.6,45.0,30.09,West,259,1.0,3.0,87,0.00,,,0.00,weatherlink.com 1.10,2013-03-15 10:06:00,
2013-03-15 03:21:00,47.3,44.0,30.08,WNW,286,1.0,3.0,87,0.00,,,0.00,weatherlink.com 1.10,2013-03-15 10:21:00,
2013-03-15 03:36:00,47.0,44.0,30.08,WNW,286,0.0,0.0,90,0.00,,,0.00,weatherlink.com 1.10,2013-03-15 10:36:00,
2013-03-15 03:51:00,46.9,44.0,30.08,WNW,286,0.0,1.0,90,0.00,,,0.00,weatherlink.com 1.10,2013-03-15 10:51:00,
2013-03-15 04:06:00,46.7,44.0,30.09,NE,35,2.0,3.0,91,0.00,,,0.00,weatherlink.com 1.10,2013-03-15 11:06:00,
2013-03-15 04:21:00,47.8,46.0,30.08,NE,38,2.0,2.0,92,0.00,,,0.00,weatherlink.com 1.10,2013-03-15 11:21:00,
2013-03-15 04:36:00,48.2,46.0,30.09,East,90,0.0,2.0,90,0.00,,,0.00,weatherlink.com 1.10,2013-03-15 11:36:00,
2013-03-15 04:51:00,47.0,44.0,30.09,SSE,153,0.0,2.0,89,0.00,,,0.00,weatherlink.com 1.10,2013-03-15 11:51:00,
2013-03-15 05:21:00,45.0,43.0,30.10,South,189,0.0,2.0,91,0.00,,,0.00,weatherlink.com 1.10,2013-03-15 12:21:00,
2013-03-15 05:36:00,46.2,45.0,30.09,South,189,0.0,0.0,96,0.00,,,0.00,weatherlink.com 1.10,2013-03-15 12:36:00,
2013-03-15 05:51:00,47.8,46.0,30.08,South,188,1.0,2.0,93,0.00,,,0.00,weatherlink.com 1.10,2013-03-15 12:51:00,
2013-03-15 06:06:00,48.3,45.0,30.08,SSW,211,2.0,3.0,88,0.00,,,0.00,weatherlink.com 1.10,2013-03-15 13:06:00,
2013-03-15 06:21:00,46.3,44.0,30.08,SW,222,1.0,2.0,92,0.00,,,0.00,weatherlink.com 1.10,2013-03-15 13:21:00,
2013-03-15 06:36:00,46.9,45.0,30.09,SW,222,0.0,1.0,93,0.00,,,0.00,weatherlink.com 1.10,2013-03-15 13:36:00,
2013-03-15 06:51:00,45.7,43.0,30.09,SW,222,0.0,0.0,90,0.00,,,0.00,weatherlink.com 1.10,2013-03-15 13:51:00,
2013-03-15 07:06:00,44.6,43.0,30.09,WNW,298,2.0,2.0,92,0.00,,,0.00,weatherlink.com 1.10,2013-03-15 14:06:00,
2013-03-15 07:21:00,44.9,43.0,30.09,WNW,299,1.0,1.0,94,0.00,,,0.00,weatherlink.com 1.10,2013-03-15 14:21:00,
2013-03-15 07:37:00,44.6,43.0,30.09,WNW,299,0.0,2.0,93,0.00,,,0.00,weatherlink.com 1.10,2013-03-15 14:37:00,
2013-03-15 07:52:00,45.0,43.0,30.09,WNW,298,0.0,0.0,94,0.00,,,0.00,weatherlink.com 1.10,2013-03-15 14:52:00,
2013-03-15 08:07:00,46.2,45.0,30.09,WNW,299,0.0,1.0,95,0.00,,,0.00,weatherlink.com 1.10,2013-03-15 15:07:00,
2013-03-15 08:22:00,47.6,46.0,30.10,West,281,0.0,2.0,94,0.00,,,0.00,weatherlink.com 1.10,2013-03-15 15:22:00,
2013-03-15 08:37:00,48.9,47.0,30.10,West,275,3.0,3.0,92,0.00,,,0.00,weatherlink.com 1.10,2013-03-15 15:37:00,
2013-03-15 08:52:00,49.7,47.0,30.10,West,277,2.0,3.0,91,0.00,,,0.00,weatherlink.com 1.10,2013-03-15 15:52:00,
2013-03-15 09:07:00,50.5,48.0,30.10,WNW,291,3.0,3.0,91,0.00,,,0.00,weatherlink.com 1.10,2013-03-15 16:07:00,
2013-03-15 09:22:00,51.3,49.0,30.10,WNW,290,0.0,3.0,92,0.00,,,0.00,weatherlink.com 1.10,2013-03-15 16:22:00,
2013-03-15 09:37:00,53.0,50.0,30.10,WNW,291,0.0,1.0,90,0.00,,,0.00,weatherlink.com 1.10,2013-03-15 16:37:00,
2013-03-15 09:52:00,55.4,51.0,30.10,WNW,291,0.0,0.0,85,0.00,,,0.00,weatherlink.com 1.10,2013-03-15 16:52:00,
2013-03-15 10:07:00,57.1,52.0,30.10,WNW,292,0.0,1.0,83,0.00,,,0.00,weatherlink.com 1.10,2013-03-15 17:07:00,
2013-03-15 10:22:00,58.3,53.0,30.11,WSW,238,0.0,4.0,83,0.00,,,0.00,weatherlink.com 1.10,2013-03-15 17:22:00,
2013-03-15 10:37:00,59.4,54.0,30.10,WSW,248,1.0,2.0,82,0.00,,,0.00,weatherlink.com 1.10,2013-03-15 17:37:00,
2013-03-15 10:52:00,61.1,54.0,30.11,NW,309,2.0,6.0,77,0.00,,,0.00,weatherlink.com 1.10,2013-03-15 17:52:00,
2013-03-15 11:07:00,63.4,53.0,30.10,WNW,298,9.0,11.0,68,0.00,,,0.00,weatherlink.com 1.10,2013-03-15 18:07:00,
2013-03-15 11:22:00,64.7,52.0,30.10,WNW,292,8.0,10.0,63,0.00,,,0.00,weatherlink.com 1.10,2013-03-15 18:22:00,
2013-03-15 11:52:00,66.3,51.0,30.09,NW,305,8.0,12.0,59,0.00,,,0.00,weatherlink.com 1.10,2013-03-15 18:52:00,
2013-03-15 12:08:00,66.8,52.0,30.09,NW,316,6.0,11.0,59,0.00,,,0.00,weatherlink.com 1.10,2013-03-15 19:08:00,
2013-03-15 12:23:00,67.6,52.0,30.09,NW,323,8.0,11.0,58,0.00,,,0.00,weatherlink.com 1.10,2013-03-15 19:23:00,
2013-03-15 12:53:00,69.0,53.0,30.08,WNW,301,8.0,12.0,57,0.00,,,0.00,weatherlink.com 1.10,2013-03-15 19:53:00,
2013-03-15 13:08:00,70.0,52.0,30.07,WNW,291,7.0,12.0,53,0.00,,,0.00,weatherlink.com 1.10,2013-03-15 20:08:00,
2013-03-15 13:23:00,70.4,53.0,30.06,WNW,295,4.0,10.0,54,0.00,,,0.00,weatherlink.com 1.10,2013-03-15 20:23:00,
2013-03-15 13:38:00,71.0,52.0,30.06,WNW,292,5.0,10.0,51,0.00,,,0.00,weatherlink.com 1.10,2013-03-15 20:38:00,
2013-03-15 13:53:00,71.5,53.0,30.05,WSW,249,5.0,8.0,52,0.00,,,0.00,weatherlink.com 1.10,2013-03-15 20:53:00,
2013-03-15 14:08:00,72.1,53.0,30.05,West,276,4.0,8.0,52,0.00,,,0.00,weatherlink.com 1.10,2013-03-15 21:08:00,
2013-03-15 14:23:00,72.5,53.0,30.04,WNW,290,5.0,10.0,50,0.00,,,0.00,weatherlink.com 1.10,2013-03-15 21:23:00,
2013-03-15 14:38:00,72.8,52.0,30.04,WNW,293,6.0,10.0,48,0.00,,,0.00,weatherlink.com 1.10,2013-03-15 21:38:00,
2013-03-15 14:53:00,73.0,51.0,30.03,WNW,294,5.0,9.0,47,0.00,,,0.00,weatherlink.com 1.10,2013-03-15 21:53:00,
2013-03-15 15:08:00,73.2,51.0,30.03,WNW,287,5.0,9.0,45,0.00,,,0.00,weatherlink.com 1.10,2013-03-15 22:08:00,
2013-03-15 15:23:00,74.3,51.0,30.03,West,278,7.0,11.0,44,0.00,,,0.00,weatherlink.com 1.10,2013-03-15 22:23:00,
2013-03-15 15:38:00,74.5,52.0,30.03,WNW,290,8.0,9.0,45,0.00,,,0.00,weatherlink.com 1.10,2013-03-15 22:38:00,
2013-03-15 15:53:00,74.8,50.0,30.03,WNW,294,4.0,10.0,42,0.00,,,0.00,weatherlink.com 1.10,2013-03-15 22:53:00,
2013-03-15 16:08:00,75.2,52.0,30.03,NW,310,4.0,7.0,44,0.00,,,0.00,weatherlink.com 1.10,2013-03-15 23:08:00,
2013-03-15 16:23:00,75.2,49.0,30.01,NW,305,3.0,6.0,40,0.00,,,0.00,weatherlink.com 1.10,2013-03-15 23:23:00,
2013-03-15 16:38:00,76.1,51.0,30.01,WNW,303,3.0,5.0,41,0.00,,,0.00,weatherlink.com 1.10,2013-03-15 23:38:00,
2013-03-15 16:53:00,76.3,52.0,30.01,WNW,298,2.0,5.0,43,0.00,,,0.00,weatherlink.com 1.10,2013-03-15 23:53:00,
2013-03-15 17:08:00,76.6,48.0,30.01,West,281,2.0,4.0,37,0.00,,,0.00,weatherlink.com 1.10,2013-03-16 00:08:00,
2013-03-15 17:23:00,76.4,51.0,30.01,WSW,241,1.0,5.0,41,0.00,,,0.00,weatherlink.com 1.10,2013-03-16 00:23:00,
2013-03-15 17:38:00,74.9,53.0,30.01,SW,223,5.0,9.0,47,0.00,,,0.00,weatherlink.com 1.10,2013-03-16 00:38:00,
2013-03-15 17:53:00,71.9,54.0,30.01,SW,236,7.0,8.0,53,0.00,,,0.00,weatherlink.com 1.10,2013-03-16 00:53:00,
2013-03-15 18:09:00,71.0,53.0,30.00,SW,217,5.0,8.0,53,0.00,,,0.00,weatherlink.com 1.10,2013-03-16 01:09:00,
2013-03-15 18:24:00,70.3,52.0,30.00,SW,226,5.0,9.0,53,0.00,,,0.00,weatherlink.com 1.10,2013-03-16 01:24:00,
2013-03-15 18:39:00,69.5,53.0,30.00,SW,232,6.0,10.0,56,0.00,,,0.00,weatherlink.com 1.10,2013-03-16 01:39:00,
2013-03-15 18:54:00,68.4,52.0,30.00,SW,231,7.0,10.0,57,0.00,,,0.00,weatherlink.com 1.10,2013-03-16 01:54:00,
2013-03-15 19:09:00,67.5,52.0,30.00,SW,223,4.0,9.0,59,0.00,,,0.00,weatherlink.com 1.10,2013-03-16 02:09:00,
2013-03-15 19:24:00,66.1,52.0,30.00,SW,229,5.0,8.0,61,0.00,,,0.00,weatherlink.com 1.10,2013-03-16 02:24:00,
2013-03-15 19:39:00,65.2,53.0,30.00,SW,217,2.0,5.0,64,0.00,,,0.00,weatherlink.com 1.10,2013-03-16 02:39:00,
2013-03-15 19:54:00,64.6,52.0,30.00,SW,236,5.0,8.0,64,0.00,,,0.00,weatherlink.com 1.10,2013-03-16 02:54:00,
2013-03-15 20:09:00,63.7,52.0,30.00,WSW,242,4.0,8.0,66,0.00,,,0.00,weatherlink.com 1.10,2013-03-16 03:09:00,
2013-03-15 20:24:00,62.6,51.0,30.00,South,185,3.0,7.0,67,0.00,,,0.00,weatherlink.com 1.10,2013-03-16 03:24:00,
2013-03-15 20:39:00,61.8,51.0,30.00,SW,233,4.0,6.0,69,0.00,,,0.00,weatherlink.com 1.10,2013-03-16 03:39:00,
2013-03-15 20:54:00,61.1,51.0,29.99,West,260,0.0,3.0,70,0.00,,,0.00,weatherlink.com 1.10,2013-03-16 03:54:00,
2013-03-15 21:09:00,59.7,51.0,30.00,SW,221,4.0,7.0,73,0.00,,,0.00,weatherlink.com 1.10,2013-03-16 04:09:00,
2013-03-15 21:24:00,59.5,51.0,30.00,SW,224,3.0,6.0,73,0.00,,,0.00,weatherlink.com 1.10,2013-03-16 04:24:00,
2013-03-15 21:39:00,58.9,51.0,30.00,West,266,1.0,3.0,74,0.00,,,0.00,weatherlink.com 1.10,2013-03-16 04:39:00,
2013-03-15 21:54:00,58.0,51.0,30.00,WNW,291,2.0,4.0,77,0.00,,,0.00,weatherlink.com 1.10,2013-03-16 04:54:00,
2013-03-15 22:09:00,57.0,51.0,30.01,West,269,0.0,3.0,79,0.00,,,0.00,weatherlink.com 1.10,2013-03-16 05:09:00,
2013-03-15 22:24:00,56.2,50.0,30.02,West,270,0.0,2.0,80,0.00,,,0.00,weatherlink.com 1.10,2013-03-16 05:24:00,
2013-03-15 22:39:00,54.8,49.0,30.02,WNW,296,0.0,2.0,82,0.00,,,0.00,weatherlink.com 1.10,2013-03-16 05:39:00,
2013-03-15 22:54:00,54.3,49.0,30.02,WNW,296,0.0,0.0,83,0.00,,,0.00,weatherlink.com 1.10,2013-03-16 05:54:00,
2013-03-15 23:09:00,54.2,50.0,30.02,WNW,296,0.0,0.0,85,0.00,,,0.00,weatherlink.com 1.10,2013-03-16 06:09:00,
2013-03-15 23:24:00,54.1,50.0,30.02,WNW,296,0.0,0.0,85,0.00,,,0.00,weatherlink.com 1.10,2013-03-16 06:24:00,
2013-03-15 23:39:00,53.9,50.0,30.02,NE,46,2.0,2.0,86,0.00,,,0.00,weatherlink.com 1.10,2013-03-16 06:39:00,
2013-03-15 23:54:00,53.9,50.0,30.02,NE,46,0.0,2.0,86,0.00,,,0.00,weatherlink.com 1.10,2013-03-16 06:54:00,